TITAN 3C TRANSTAGE DEB, 43456

Orbit data source: Space-Track

TITAN 3C TRANSTAGE DEB, 43456 is space debris originally from a launch on Sun, 09 Feb 1969 UTC launched from the Air Force Eastern Test Range (AFETR). Debris objects in space refer to the collection of defunct objects orbiting the Earth. Examples of debris include non-operational satellites, rocket bodies, and fragments generated from explosions, collisions, or faulty payload assembly.

Not visible in the next 10 days
TITAN 3C TRANSTAGE DEB details
Identifier
43456, 1969-013P
Orbit
Active
Last TLE update3 weeks ago
Origin
Flag of USUSAF SMC (US)
ManufacturerMartin Marietta
MissionSpacecraft
Bus & MotorUnknown
MassUnknown
Launch date (UTC)
1969-02-09 (56 years ago)
Launch vehicleUnknown
Launch site
Air Force Eastern Test Range (AFETR)
Object type
Payload
Rocket body
Debris
Shape & HBRUnknown
Radar Cross SectionRCS unknown

Expand to show TLE details & history

TLE from 3 weeks ago
0 TITAN 3C TRANSTAGE DEB
1 43456U 69013P   24326.41197896  .00000007  00000-0  00000-0 0  9990
2 43456   1.0199  13.4372 0545111 127.5730 236.5161  1.02766828   842
Epoch: 2024-11-21T09:53Z
Definitive object data (Epoch: 2024-11-21T09:53:14.982Z)
Latitude-0°
Longitude163.30615°
Altitude36,423.214 km
Speed3.003 km/s
True Right ascension00h 50m 03s
True Declination0° 00' 00"
Sunlit
Object was in daylight at TLE epoch
Visualization TLE readout
Latitude0.28556°
Longitude-32.5836°
Altitude33,226.094 km
Speed3.243 km/s
Apparent Right ascension12h 09m 00s
Apparent Declination-5° 13' 14"
Sunlit
Object is in daylight
Visualization observer readout
Local Sidereal Time03:38:58
Azimuth67.991° E
Elevation-31.565°
Doppler factor1
Orbital elements
Apogee altitude37,363.576 km
Perigee altitude32,841.274 km
Semi-major axis41,480.562 km
Eccentricity0.0545111
Inclination1.0199°
RAAN13.4372°
Arg. of periapsis127.573°
True anomaly231.50164°
Mean anomaly236.5161°
Eccentric anomaly233.98966°
Mean motion0.25691 °/min
BSTARUnknown
Orbital period1401.28 mins
Loading maneuver chart data...

TITAN 3C TRANSTAGE DEB Visibility forecast

Observer location: undefined°, undefined

TITAN 3C TRANSTAGE DEB is not visible in the next 10 days
Span
Click to sort rows by Start time (UTC) header in descending order
Start Az.
Max El. time (UTC)
Max El. Az.
Max El.
End time (UTC)
End Az.
|